Overview Statistics Trail Chart Weather Telemetry Raw packets
 

This is the latest recevied weather packets stored in our database for station/object DL0BB-10. If no packets are shown the sender has not sent any weather packets the latest 10 day(s).

<< 23 24 25 26 27 28 29 >>
Time Temp. Humidity Pressure Rain* Wind** Luminosity Snow
1788157785 25.56° C 41% 1017.5 hPa - - - -
1788156885 26.11° C 40% 1017.4 hPa - - - -
1788155984 25° C 43% 1017.3 hPa - - - -
1788155084 25.56° C 42% 1017.4 hPa - - - -
1788154183 25.56° C 41% 1017.2 hPa - - - -
1788153283 26.11° C 41% 1016.9 hPa - - - -
1788152383 25° C 42% 1017 hPa - - - -
1788151483 25.56° C 42% 1016.9 hPa - - - -
1788150583 26.11° C 41% 1016.8 hPa - - - -
1788149682 26.11° C 41% 1016.7 hPa - - - -
1788148782 25.56° C 42% 1016.5 hPa - - - -
1788147882 25.56° C 42% 1016.4 hPa - - - -
1788146982 26.11° C 41% 1016.5 hPa - - - -
1788146082 26.11° C 42% 1016.4 hPa - - - -
1788145181 25.56° C 42% 1016.4 hPa - - - -
1788144287 26.11° C 41% 1016.3 hPa - - - -
1788143387 26.67° C 40% 1016.1 hPa - - - -
1788142487 25.56° C 42% 1015.8 hPa - - - -
1788141587 25.56° C 42% 1015.8 hPa - - - -
1788140686 26.11° C 40% 1015.8 hPa - - - -
1788139786 26.67° C 40% 1015.6 hPa - - - -
1788138886 25.56° C 42% 1015.4 hPa - - - -
1788137986 26.11° C 41% 1015.7 hPa - - - -
1788137086 26.11° C 40% 1015.8 hPa - - - -
1788136186 26.67° C 40% 1015.8 hPa - - - -

* Rain since midnight (hover to see other rain measurements)
** Current wind speed in m/s (hover to see current wind gust speed)